SWA4052 KBNA-KMDW

Flight info

Callsign SWA4052
Flight time 1h 13m
Altitude 36000
Route KRSTA4 OLSIE IIU DROSE FISSK7
Aircraft B738/M-SDE2E3FGHIRWXY/LB1

Departure

Time 2026-05-04 00:07
Airport Nashville International Airport (KBNA)

Arrival

Time 2026-05-04 01:20
Airport Chicago Midway International Airport (KMDW)
Time Latitude Longitude Altitude Speed Heading
2026-05-03 23:33 36.13337 -86.67002 607 ft 0 kts 123°
2026-05-03 23:55 36.13343 -86.67013 607 ft 2 kts 123°
2026-05-03 23:55 36.13352 -86.67030 607 ft 2 kts 123°
2026-05-03 23:55 36.13361 -86.67046 607 ft 2 kts 129°
2026-05-03 23:56 36.13373 -86.67058 607 ft 1 kts 181°
2026-05-03 23:56 36.13380 -86.67056 607 ft 0 kts 195°
2026-05-03 23:59 36.13374 -86.67060 607 ft 6 kts 216°
2026-05-04 00:00 36.13376 -86.67148 607 ft 11 kts 284°
2026-05-04 00:00 36.13387 -86.67198 607 ft 2 kts 285°
2026-05-04 00:00 36.13387 -86.67200 607 ft 1 kts 289°
2026-05-04 00:00 36.13429 -86.67246 607 ft 15 kts 329°
2026-05-04 00:01 36.13449 -86.67294 607 ft 4 kts 205°
2026-05-04 00:01 36.13400 -86.67315 607 ft 8 kts 196°
2026-05-04 00:01 36.13323 -86.67343 607 ft 11 kts 203°
2026-05-04 00:01 36.13247 -86.67363 607 ft 17 kts 184°
2026-05-04 00:02 36.13184 -86.67288 607 ft 10 kts 101°
2026-05-04 00:02 36.13164 -86.67170 607 ft 23 kts 102°
2026-05-04 00:02 36.13053 -86.67092 607 ft 21 kts 196°
2026-05-04 00:02 36.12947 -86.67205 607 ft 18 kts 226°
2026-05-04 00:03 36.12825 -86.67301 607 ft 25 kts 208°
2026-05-04 00:03 36.12714 -86.67431 607 ft 18 kts 226°
2026-05-04 00:03 36.12619 -86.67499 607 ft 15 kts 205°
2026-05-04 00:03 36.12555 -86.67560 607 ft 11 kts 222°
2026-05-04 00:04 36.12503 -86.67621 607 ft 7 kts 222°
2026-05-04 00:04 36.12424 -86.67686 607 ft 22 kts 204°
2026-05-04 00:04 36.12348 -86.67732 607 ft 3 kts 283°
2026-05-04 00:04 36.12360 -86.67774 607 ft 13 kts 289°
2026-05-04 00:05 36.12374 -86.67826 607 ft 0 kts 289°
2026-05-04 00:05 36.12377 -86.67835 607 ft 7 kts 291°
2026-05-04 00:06 36.12398 -86.67947 607 ft 13 kts 263°
2026-05-04 00:06 36.12375 -86.67980 607 ft 0 kts 198°
2026-05-04 00:06 36.12203 -86.68050 607 ft 63 kts 199°
2026-05-04 00:06 36.11547 -86.68316 608 ft 133 kts 200°
2026-05-04 00:07 36.10523 -86.68715 913 ft 168 kts 195°
2026-05-04 00:07 36.09375 -86.69186 1717 ft 179 kts 206°
2026-05-04 00:07 36.08375 -86.70078 2674 ft 176 kts 230°
2026-05-04 00:07 36.07795 -86.71455 3294 ft 192 kts 252°
2026-05-04 00:08 36.07392 -86.73144 3639 ft 217 kts 253°
2026-05-04 00:08 36.06974 -86.75003 4181 ft 229 kts 254°
2026-05-04 00:08 36.06743 -86.76949 5031 ft 231 kts 269°
2026-05-04 00:08 36.06971 -86.78925 5943 ft 232 kts 278°
2026-05-04 00:09 36.07328 -86.80898 6557 ft 243 kts 282°
2026-05-04 00:09 36.07753 -86.82969 6891 ft 258 kts 282°
2026-05-04 00:09 36.08284 -86.85131 7451 ft 266 kts 292°
2026-05-04 00:09 36.09399 -86.86960 8391 ft 272 kts 316°
2026-05-04 00:10 36.11078 -86.88080 9242 ft 281 kts 340°
2026-05-04 00:10 36.13039 -86.88255 10168 ft 287 kts
2026-05-04 00:10 36.14974 -86.87482 10956 ft 301 kts 21°
2026-05-04 00:10 36.16890 -86.86341 11608 ft 310 kts 20°
2026-05-04 00:11 36.18932 -86.85308 12030 ft 326 kts 15°
2026-05-04 00:11 36.21160 -86.84497 12399 ft 341 kts 10°
2026-05-04 00:11 36.23509 -86.83831 12992 ft 350 kts
2026-05-04 00:11 36.25898 -86.83170 13753 ft 354 kts
2026-05-04 00:12 36.28317 -86.82478 14530 ft 358 kts
2026-05-04 00:12 36.30754 -86.81763 15332 ft 362 kts
2026-05-04 00:12 36.33128 -86.80739 16071 ft 373 kts 21°
2026-05-04 00:12 36.35343 -86.78995 16813 ft 384 kts 33°
2026-05-04 00:13 36.37306 -86.76697 17522 ft 393 kts 42°
2026-05-04 00:13 36.39117 -86.74114 18213 ft 399 kts 45°
2026-05-04 00:13 36.40906 -86.71466 18872 ft 403 kts 45°
2026-05-04 00:13 36.42752 -86.68813 19506 ft 407 kts 44°
2026-05-04 00:14 36.44635 -86.66151 20133 ft 412 kts 44°
2026-05-04 00:14 36.46555 -86.63458 20732 ft 416 kts 43°
2026-05-04 00:14 36.48487 -86.60757 21319 ft 421 kts 43°
2026-05-04 00:14 36.50443 -86.58024 21897 ft 425 kts 44°
2026-05-04 00:15 36.52388 -86.55305 22430 ft 429 kts 43°
2026-05-04 00:15 36.54390 -86.52508 22956 ft 433 kts 44°
2026-05-04 00:15 36.56486 -86.49804 23476 ft 433 kts 37°
2026-05-04 00:15 36.58863 -86.47511 23980 ft 431 kts 28°
2026-05-04 00:16 36.61463 -86.45647 24487 ft 430 kts 21°
2026-05-04 00:16 36.64192 -86.44125 24990 ft 429 kts 16°
2026-05-04 00:16 36.66042 -86.43238 25317 ft 431 kts 15°
2026-05-04 00:16 36.68842 -86.41851 25796 ft 434 kts 17°
2026-05-04 00:17 36.72565 -86.39939 26404 ft 439 kts 17°
2026-05-04 00:17 36.75346 -86.38321 26878 ft 443 kts 20°
2026-05-04 00:17 36.77206 -86.37132 27240 ft 444 kts 21°
2026-05-04 00:17 36.79891 -86.35340 27820 ft 443 kts 22°
2026-05-04 00:18 36.82597 -86.33541 28422 ft 440 kts 21°
2026-05-04 00:18 36.85296 -86.31766 29012 ft 438 kts 21°
2026-05-04 00:18 36.88000 -86.30000 29532 ft 437 kts 20°
2026-05-04 00:18 36.90699 -86.28242 29937 ft 438 kts 20°
2026-05-04 00:19 36.96164 -86.24708 30045 ft 449 kts 20°
2026-05-04 00:19 37.01817 -86.21061 30054 ft 463 kts 20°
2026-05-04 00:20 37.07567 -86.17318 30054 ft 466 kts 20°
2026-05-04 00:20 37.13268 -86.13595 30054 ft 465 kts 20°
2026-05-04 00:21 37.19008 -86.09843 30054 ft 465 kts 20°
2026-05-04 00:21 37.24762 -86.06128 30052 ft 463 kts 18°
2026-05-04 00:22 37.30637 -86.02861 30049 ft 461 kts 16°
2026-05-04 00:22 37.36517 -85.99597 30045 ft 461 kts 16°
2026-05-04 00:23 37.42402 -85.96294 30041 ft 464 kts 16°
2026-05-04 00:23 37.48285 -85.92976 30037 ft 463 kts 16°
2026-05-04 00:24 37.54171 -85.89647 30037 ft 463 kts 16°
2026-05-04 00:24 37.60031 -85.86357 30033 ft 463 kts 16°
2026-05-04 00:25 37.65912 -85.83035 30032 ft 463 kts 16°
2026-05-04 00:25 37.71795 -85.79699 30028 ft 463 kts 16°
2026-05-04 00:26 37.77682 -85.76352 30023 ft 463 kts 16°
2026-05-04 00:26 37.83567 -85.73018 30018 ft 463 kts 16°
2026-05-04 00:27 37.89448 -85.69666 30015 ft 463 kts 16°
2026-05-04 00:27 37.95294 -85.66319 30012 ft 463 kts 16°
2026-05-04 00:28 38.01177 -85.62943 30012 ft 463 kts 16°
2026-05-04 00:28 38.07075 -85.59677 30011 ft 457 kts 10°
2026-05-04 00:29 38.10115 -85.58747 30011 ft 445 kts 360°
2026-05-04 00:29 38.13172 -85.58545 30011 ft 434 kts 350°
2026-05-04 00:29 38.19119 -85.59324 30010 ft 427 kts 344°
2026-05-04 00:30 38.24986 -85.60486 30009 ft 427 kts 343°
2026-05-04 00:30 38.30811 -85.61631 30005 ft 427 kts 344°
2026-05-04 00:31 38.36687 -85.62776 29998 ft 427 kts 344°
2026-05-04 00:31 38.42551 -85.63916 29993 ft 426 kts 344°
2026-05-04 00:32 38.48422 -85.65049 29995 ft 426 kts 344°
2026-05-04 00:32 38.54279 -85.66179 30001 ft 425 kts 343°
2026-05-04 00:33 38.63065 -85.67882 30011 ft 425 kts 343°
2026-05-04 00:34 38.68877 -85.69013 30015 ft 425 kts 343°
2026-05-04 00:34 38.74716 -85.70150 30019 ft 424 kts 343°
2026-05-04 00:35 38.80548 -85.71289 30017 ft 423 kts 343°
2026-05-04 00:35 38.86379 -85.72429 30015 ft 423 kts 343°
2026-05-04 00:36 38.92158 -85.73561 30011 ft 422 kts 343°
2026-05-04 00:36 38.97961 -85.74699 30007 ft 422 kts 343°
2026-05-04 00:37 39.03761 -85.75839 30002 ft 421 kts 343°
2026-05-04 00:37 39.09550 -85.76980 29997 ft 419 kts 343°
2026-05-04 00:38 39.15320 -85.78117 29994 ft 419 kts 343°
2026-05-04 00:38 39.21039 -85.79246 29992 ft 418 kts 343°
2026-05-04 00:39 39.26793 -85.80384 29990 ft 418 kts 342°
2026-05-04 00:39 39.32536 -85.81522 29987 ft 417 kts 342°
2026-05-04 00:40 39.38274 -85.82661 29982 ft 416 kts 342°
2026-05-04 00:40 39.44006 -85.83801 29975 ft 416 kts 342°
2026-05-04 00:41 39.49724 -85.84939 29967 ft 416 kts 342°
2026-05-04 00:41 39.55442 -85.86081 29962 ft 415 kts 342°
2026-05-04 00:42 39.61109 -85.87214 29960 ft 414 kts 342°
2026-05-04 00:42 39.66808 -85.88354 29958 ft 413 kts 342°
2026-05-04 00:43 39.72485 -85.89491 29955 ft 413 kts 342°
2026-05-04 00:43 39.78170 -85.90635 29952 ft 413 kts 342°
2026-05-04 00:44 39.83843 -85.91774 29950 ft 412 kts 342°
2026-05-04 00:44 39.89512 -85.92916 29949 ft 412 kts 342°
2026-05-04 00:45 39.95193 -85.94063 29944 ft 412 kts 342°
2026-05-04 00:45 40.00830 -85.95203 29941 ft 412 kts 342°
2026-05-04 00:46 40.06509 -85.96352 29942 ft 412 kts 342°
2026-05-04 00:46 40.12179 -85.97502 29941 ft 412 kts 342°
2026-05-04 00:47 40.17842 -85.98653 29939 ft 403 kts 342°
2026-05-04 00:47 40.23226 -85.99743 29939 ft 388 kts 341°
2026-05-04 00:48 40.28529 -86.00821 29812 ft 384 kts 341°
2026-05-04 00:48 40.31144 -86.01356 29514 ft 375 kts 341°
2026-05-04 00:48 40.33702 -86.01879 29059 ft 370 kts 341°
2026-05-04 00:48 40.36232 -86.02398 28570 ft 367 kts 341°
2026-05-04 00:49 40.38750 -86.02914 28084 ft 365 kts 341°
2026-05-04 00:49 40.41250 -86.03427 27603 ft 363 kts 341°
2026-05-04 00:49 40.43738 -86.03938 27123 ft 360 kts 341°
2026-05-04 00:49 40.46183 -86.04440 26649 ft 358 kts 341°
2026-05-04 00:50 40.48670 -86.04951 26164 ft 357 kts 341°
2026-05-04 00:50 40.51086 -86.05444 25690 ft 355 kts 342°
2026-05-04 00:50 40.53562 -86.05744 25213 ft 360 kts 348°
2026-05-04 00:50 40.56076 -86.05775 24736 ft 362 kts 351°
2026-05-04 00:51 40.58615 -86.05692 24253 ft 368 kts 352°
2026-05-04 00:51 40.61198 -86.05616 23756 ft 374 kts 352°
2026-05-04 00:51 40.63808 -86.05551 23253 ft 375 kts 352°
2026-05-04 00:51 40.66419 -86.05491 22747 ft 374 kts 352°
2026-05-04 00:52 40.69013 -86.05430 22248 ft 371 kts 353°
2026-05-04 00:52 40.71583 -86.05373 21755 ft 368 kts 353°
2026-05-04 00:52 40.74135 -86.05314 21264 ft 365 kts 353°
2026-05-04 00:52 40.76639 -86.05257 20781 ft 362 kts 353°
2026-05-04 00:53 40.79150 -86.05199 20300 ft 360 kts 354°
2026-05-04 00:53 40.81640 -86.05141 19820 ft 357 kts 354°
2026-05-04 00:53 40.84121 -86.05083 19342 ft 354 kts 354°
2026-05-04 00:53 40.86578 -86.05026 18871 ft 352 kts 354°
2026-05-04 00:54 40.89018 -86.04969 18404 ft 349 kts 355°
2026-05-04 00:54 40.91441 -86.04914 17944 ft 346 kts 354°
2026-05-04 00:54 40.93796 -86.05218 17493 ft 334 kts 339°
2026-05-04 00:54 40.95822 -86.06527 17187 ft 318 kts 319°
2026-05-04 00:55 40.97292 -86.08646 16651 ft 314 kts 299°
2026-05-04 00:55 40.98087 -86.11332 16131 ft 314 kts 284°
2026-05-04 00:55 40.98555 -86.14146 15674 ft 313 kts 284°
2026-05-04 00:55 40.99070 -86.16936 15228 ft 311 kts 285°
2026-05-04 00:56 40.99632 -86.19690 14786 ft 309 kts 286°
2026-05-04 00:56 41.00216 -86.22417 14354 ft 307 kts 287°
2026-05-04 00:56 41.00815 -86.25118 13919 ft 305 kts 287°
2026-05-04 00:56 41.01417 -86.27805 13490 ft 303 kts 287°
2026-05-04 00:57 41.02022 -86.30475 13063 ft 302 kts 287°
2026-05-04 00:57 41.02622 -86.33130 12638 ft 300 kts 287°
2026-05-04 00:57 41.03213 -86.35743 12215 ft 299 kts 287°
2026-05-04 00:57 41.03810 -86.38380 11788 ft 298 kts 287°
2026-05-04 00:58 41.04405 -86.41007 11362 ft 297 kts 287°
2026-05-04 00:58 41.05097 -86.43572 11094 ft 294 kts 292°
2026-05-04 00:58 41.06011 -86.46020 10861 ft 299 kts 296°
2026-05-04 00:58 41.07017 -86.48436 10706 ft 301 kts 297°
2026-05-04 00:59 41.08018 -86.50855 10554 ft 297 kts 296°
2026-05-04 00:59 41.08989 -86.53222 10399 ft 283 kts 296°
2026-05-04 00:59 41.09884 -86.55416 10260 ft 258 kts 295°
2026-05-04 00:59 41.10725 -86.57480 10144 ft 252 kts 295°
2026-05-04 01:00 41.11546 -86.59494 10028 ft 251 kts 295°
2026-05-04 01:00 41.12494 -86.61488 9906 ft 255 kts 303°
2026-05-04 01:00 41.13681 -86.63203 9787 ft 257 kts 310°
2026-05-04 01:00 41.15002 -86.64802 9660 ft 257 kts 313°
2026-05-04 01:01 41.16374 -86.66342 9533 ft 257 kts 314°
2026-05-04 01:01 41.17667 -86.67788 9417 ft 257 kts 313°
2026-05-04 01:01 41.19029 -86.69324 9290 ft 256 kts 313°
2026-05-04 01:01 41.20385 -86.70862 9169 ft 255 kts 313°
2026-05-04 01:02 41.21731 -86.72397 9046 ft 256 kts 313°
2026-05-04 01:02 41.23080 -86.73937 8923 ft 256 kts 312°
2026-05-04 01:02 41.24434 -86.75486 8799 ft 256 kts 312°
2026-05-04 01:02 41.25788 -86.77043 8677 ft 259 kts 312°
2026-05-04 01:03 41.27143 -86.78605 8554 ft 258 kts 312°
2026-05-04 01:03 41.28498 -86.80169 8432 ft 258 kts 312°
2026-05-04 01:03 41.29854 -86.81731 8307 ft 258 kts 312°
2026-05-04 01:03 41.31204 -86.83291 8183 ft 255 kts 312°
2026-05-04 01:04 41.32540 -86.84833 8066 ft 254 kts 312°
2026-05-04 01:04 41.33878 -86.86376 7962 ft 254 kts 312°
2026-05-04 01:04 41.35201 -86.87900 7846 ft 254 kts 312°
2026-05-04 01:04 41.36534 -86.89441 7725 ft 253 kts 312°
2026-05-04 01:05 41.37865 -86.90977 7606 ft 254 kts 312°
2026-05-04 01:05 41.39201 -86.92520 7488 ft 254 kts 312°
2026-05-04 01:05 41.40529 -86.94071 7363 ft 253 kts 311°
2026-05-04 01:05 41.41827 -86.95650 7243 ft 253 kts 310°
2026-05-04 01:06 41.43118 -86.97229 7122 ft 252 kts 310°
2026-05-04 01:06 41.44414 -86.98811 7002 ft 252 kts 310°
2026-05-04 01:06 41.45600 -87.00497 6884 ft 247 kts 301°
2026-05-04 01:06 41.46531 -87.02408 6775 ft 244 kts 294°
2026-05-04 01:07 41.47065 -87.03720 6693 ft 242 kts 292°
2026-05-04 01:07 41.47808 -87.05729 6581 ft 242 kts 291°
2026-05-04 01:07 41.48551 -87.07750 6468 ft 243 kts 291°
2026-05-04 01:07 41.49303 -87.09762 6350 ft 241 kts 291°
2026-05-04 01:08 41.50056 -87.11760 6230 ft 241 kts 291°
2026-05-04 01:08 41.50805 -87.13752 6116 ft 240 kts 292°
2026-05-04 01:08 41.51786 -87.15578 6005 ft 249 kts 311°
2026-05-04 01:08 41.53247 -87.16900 5847 ft 260 kts 326°
2026-05-04 01:09 41.54939 -87.17823 5647 ft 264 kts 334°
2026-05-04 01:09 41.56686 -87.18569 5447 ft 262 kts 335°
2026-05-04 01:09 41.58422 -87.19351 5253 ft 265 kts 334°
2026-05-04 01:09 41.60148 -87.20176 5061 ft 263 kts 334°
2026-05-04 01:10 41.61859 -87.21016 4872 ft 260 kts 333°
2026-05-04 01:10 41.63561 -87.21863 4698 ft 261 kts 333°
2026-05-04 01:10 41.65264 -87.22715 4520 ft 260 kts 333°
2026-05-04 01:10 41.66962 -87.23565 4340 ft 261 kts 334°
2026-05-04 01:11 41.68642 -87.24407 4160 ft 261 kts 334°
2026-05-04 01:11 41.70339 -87.25260 4009 ft 260 kts 334°
2026-05-04 01:11 41.72036 -87.26107 3922 ft 261 kts 334°
2026-05-04 01:11 41.73741 -87.26965 3840 ft 261 kts 334°
2026-05-04 01:12 41.75442 -87.27824 3759 ft 261 kts 334°
2026-05-04 01:12 41.77109 -87.28754 3681 ft 259 kts 330°
2026-05-04 01:12 41.78733 -87.29792 3604 ft 258 kts 329°
2026-05-04 01:12 41.80356 -87.30836 3531 ft 259 kts 329°
2026-05-04 01:13 41.81985 -87.31860 3456 ft 259 kts 330°
2026-05-04 01:13 41.83602 -87.32915 3377 ft 257 kts 324°
2026-05-04 01:13 41.84866 -87.34499 3299 ft 246 kts 298°
2026-05-04 01:13 41.85412 -87.36612 3225 ft 238 kts 271°
2026-05-04 01:14 41.85311 -87.38808 3163 ft 236 kts 262°
2026-05-04 01:14 41.85185 -87.40973 3090 ft 236 kts 263°
2026-05-04 01:14 41.85059 -87.43164 3019 ft 235 kts 263°
2026-05-04 01:14 41.84968 -87.45356 2987 ft 236 kts 266°
2026-05-04 01:15 41.84973 -87.47555 2987 ft 235 kts 268°
2026-05-04 01:15 41.84995 -87.49748 2986 ft 235 kts 267°
2026-05-04 01:15 41.85004 -87.51944 2985 ft 235 kts 267°
2026-05-04 01:15 41.85011 -87.54114 2981 ft 228 kts 267°
2026-05-04 01:16 41.85002 -87.56172 2970 ft 214 kts 265°
2026-05-04 01:16 41.84930 -87.58113 3010 ft 200 kts 263°
2026-05-04 01:16 41.84823 -87.59880 2988 ft 180 kts 261°
2026-05-04 01:16 41.84710 -87.61444 2922 ft 161 kts 261°
2026-05-04 01:17 41.84634 -87.62905 2681 ft 153 kts 263°
2026-05-04 01:17 41.84571 -87.64276 2470 ft 141 kts 260°
2026-05-04 01:17 41.84364 -87.65497 2273 ft 128 kts 250°
2026-05-04 01:17 41.84063 -87.66584 2087 ft 123 kts 245°
2026-05-04 01:18 41.83694 -87.67647 1974 ft 127 kts 242°
2026-05-04 01:18 41.83259 -87.68654 1823 ft 125 kts 237°
2026-05-04 01:18 41.82759 -87.69629 1674 ft 131 kts 233°
2026-05-04 01:18 41.82180 -87.70592 1502 ft 132 kts 228°
2026-05-04 01:19 41.81561 -87.71431 1347 ft 123 kts 215°
2026-05-04 01:19 41.80913 -87.72207 1063 ft 127 kts 215°
2026-05-04 01:19 41.80244 -87.72977 884 ft 124 kts 219°
2026-05-04 01:19 41.79633 -87.73743 737 ft 117 kts 220°
2026-05-04 01:20 41.79066 -87.74482 631 ft 109 kts 220°
2026-05-04 01:20 41.78630 -87.75032 628 ft 55 kts 223°
2026-05-04 01:20 41.78430 -87.75287 628 ft 35 kts 222°
2026-05-04 01:20 41.78277 -87.75472 628 ft 23 kts 218°
2026-05-04 01:21 41.78169 -87.75539 628 ft 13 kts 197°
2026-05-04 01:21 41.78130 -87.75553 628 ft 0 kts 194°
2026-05-04 01:21 41.78129 -87.75554 628 ft 1 kts 194°
2026-05-04 01:21 41.78097 -87.75517 628 ft 9 kts 58°
2026-05-04 01:22 41.78144 -87.75449 628 ft 19 kts 44°
2026-05-04 01:22 41.78268 -87.75291 628 ft 23 kts 45°
2026-05-04 01:22 41.78362 -87.75167 628 ft 17 kts 40°
2026-05-04 01:22 41.78464 -87.75038 628 ft 23 kts 44°
2026-05-04 01:23 41.78562 -87.74913 628 ft 16 kts 44°
2026-05-04 01:23 41.78611 -87.74822 628 ft 12 kts 91°
2026-05-04 01:23 41.78553 -87.74701 628 ft 14 kts 133°
2026-05-04 01:23 41.78530 -87.74669 628 ft 0 kts 135°
2026-05-04 01:24 41.78523 -87.74660 628 ft 8 kts 134°
2026-05-04 01:24 41.78491 -87.74568 628 ft 11 kts 87°
2026-05-04 01:24 41.78491 -87.74496 628 ft 4 kts 94°
2026-05-04 01:25 41.78486 -87.74465 628 ft 4 kts 108°
2026-05-04 01:25 41.78478 -87.74439 628 ft 0 kts 111°